Home > Time Zones > World Clock > Weather > U.S.A. > Bend > Past weeks

Flag for U.S.A. Weather past 2 weeks in Bend, Oregon, U.S.A.

Now
70 °F

Clear.


Feels Like: 77 °F
Forecast: 60 / 89 °F
Wind: 6 mph from Northwest

Location: Roberts Field Airport

Current Time: Jul 29, 2014 at 1:56:02 AM

Latest Report: Jul 29, 2014 at 12:56 AM


Visibility: 10 mi

Pressure: 30.03 "Hg

Humidity: 49%

Dew point: 50 °F

Location of BendLocation

Historic Weather in Bend — Graph

°F

Bend temperature yesterday

Maximum temperature yesterday: 96 °F (at 2:56 PM)
Minimum temperature yesterday: 46 °F (at 5:56 AM)
Average temperature yesterday: 77 °F

Past Weeks' High & Low Weather Summary

 TemperatureHumidityPressure
High98 °F (Jul 16, 2:56 PM)96% (Jul 24, 2:56 AM)30.25 "Hg (Jul 24, 2:56 AM)
Low34 °F (Jul 24, 4:56 AM)7% (Jul 18, 11:56 AM)29.79 "Hg (Jul 20, 2:56 PM)
Average69 °F42%30.01 "Hg
* Reported Jul 14 12:56 AM — Jul 29 12:56 AM, Bend, Weather by CustomWeather, © 2014

Note: Actual official high and low records may vary slightly from our data, if they occured in-between our weather recording intervals... More about our weather records

Advertising

Bend weather history for previous 24 hours

 ConditionsComfort  
Time TempWeatherWind HumidityBarometerVisibility
12:56 AM
Jul 29
70 °FClear.6 mph49%30.03 "Hg10 mi
11:56 PM
Jul 28
73 °FClear.5 mph46%30.03 "Hg10 mi
10:56 PM76 °FClear.8 mph42%30.03 "Hg10 mi
9:56 PM81 °FClear.10 mph33%30.02 "Hg10 mi
8:56 PM84 °FSunny.8 mph22%30.00 "Hg10 mi
7:56 PM88 °FSunny.5 mph18%29.99 "Hg10 mi
6:56 PM91 °FSunny.8 mph14%29.98 "Hg10 mi
5:56 PM92 °FSunny.8 mph14%30.01 "Hg10 mi
4:56 PM93 °FSunny.8 mph14%30.00 "Hg10 mi
3:56 PM96 °FSunny.9 mph13%29.99 "Hg10 mi
2:56 PM96 °FSunny.14 mph13%30.01 "Hg10 mi
1:56 PM95 °FSunny.9 mph13%30.02 "Hg10 mi
12:56 PM92 °FSunny.8 mph14%30.04 "Hg10 mi
11:56 AM89 °FSunny.10 mph16%30.06 "Hg10 mi
10:56 AM84 °FSunny.No wind19%30.06 "Hg10 mi
9:56 AM80 °FSunny.3 mph24%30.06 "Hg10 mi
8:56 AM73 °FSunny.3 mph33%30.08 "Hg10 mi
7:56 AM66 °FSunny.3 mph42%30.09 "Hg10 mi
6:56 AM60 °FSunny.6 mph49%30.09 "Hg10 mi
5:56 AM46 °FClear.3 mph71%30.10 "Hg10 mi
4:56 AM52 °FClear.3 mph61%30.08 "Hg10 mi
3:56 AM58 °FClear.3 mph54%30.07 "Hg10 mi
2:56 AM58 °FClear.8 mph54%30.07 "Hg10 mi
1:56 AM61 °FClear.8 mph48%30.06 "Hg10 mi
Weather by CustomWeather, © 2014

See weather overviewHow to use our weather pages